Location: Charbonni�res
(45.9952°N, 2.9982°E)
Time: 13:37:23
(UTC+00:00)

Cosmos 1898 Rocket - Pass Details

Date: 29 November 2020
Orbit: 754 x 783 km, 74.0° (Epoch: 27 January)

Event Time Altitude Azimuth Distance (km) Brightness Sun altitude
Rises 04:44:40 0° 188° (S) 3,243 6.7 -24.1°
Reaches altitude 10° 04:47:03 10° 185° (S) 2,323 6.0 -23.7°
Maximum altitude 04:52:14 60° 107° (ESE) 895 4.0 -22.8°
Drops below altitude 10° 04:57:29 10° 28° (NNE) 2,349 6.2 -21.9°
Sets 04:59:54 0° 25° (NNE) 3,282 7.0 -21.5°
